Location: Lafig�re
(44.4503°N, 4.0357°E)
Time: 14:49:46
(UTC+00:00)

deb Explorer IX - Pass Details

Date: 23 January 2021
Orbit: 537 x 1102 km, 38.8° (Epoch: 01 March)

Event Time Altitude Azimuth Distance (km) Brightness Sun altitude
Rises 22:03:41 0° 271° (W) 3,223 - -55.6°
Reaches altitude 10° 22:06:41 10° 258° (WSW) 2,187 - -56.1°
Maximum altitude 22:10:40 24° 205° (SSW) 1,349 - -56.6°
Drops below altitude 10° 22:14:15 10° 152° (SSE) 1,940 - -57.1°
Sets 22:16:45 0° 137° (SE) 2,775 - -57.4°
